Orbital Elements at Epoch 2459200.5 (2020-Dec-17.0) TDB
Reference: JPL 36 (heliocentric ecliptic J2000)
Element | Value | Uncertainty (1-sigma) | Units |
e | .1481583700614652 | 3.6191e-08 | |
a | 3.207418107734427 | 1.8435e-08 | au |
q | 2.732212268786866 | 1.1947e-07 | au |
i | .7822368542282777 | 4.1423e-06 | deg |
node | 175.996968610859 | 0.00027264 | deg |
peri | 181.8123290828531 | 0.00027296 | deg |
M | 67.74797886187486 | 1.2436e-05 | deg |
tp | 2458805.655916705174 (2019-Nov-18.15591671) | 7.2739e-05 | TDB |
period | 2098.127093591111 5.74 | 1.8089e-05 4.952e-08 | d yr |
n | .1715815982261739 | 1.4793e-09 | deg/d |
Q | 3.682623946681989 | 2.1167e-08 | au |
|
| | Orbit Determination Parameters
Additional Information
|